Location: Peebles
(55.6412°N, 3.1714°W)
Time: 05:55:50
(UTC+01:00)

METEOR 2-8 DEB - Pass Details

Date: 04 July 2022
Orbit: 792 x 830 km, 82.5° (Epoch: 08 August)

Event Time Altitude Azimuth Distance (km) Brightness Sun altitude
Rises 22:47:28 0° 188° (S) 3,321 ? -5.3°
Reaches altitude 10° 22:49:51 10° 187° (S) 2,388 ? -5.5°
Maximum altitude 22:55:15 85° 101° (E) 814 ? -5.9°
Drops below altitude 10° 23:00:38 10° 13° (NNE) 2,383 ? -6.3°
Sets 23:03:00 0° 13° (NNE) 3,314 ? -6.5°
